Location: Newark
(42.8481°N, 0.4872°E)
Time: 23:15:00
(UTC+00:00)

Vanguard 1 - Pass Details

Date: 02 November 2020
Orbit: 650 x 3833 km, 34.2° (Epoch: 29 November)

Event Time Altitude Azimuth Distance (km) Brightness Sun altitude
Rises 10:55:35 0° 229° (SW) 6,563 14.6 31.2°
Reaches altitude 10° 10:59:32 10° 224° (SW) 5,886 14.6 31.4°
Maximum altitude 11:18:48 54° 154° (SSE) 4,282 14.7 31.9°
Drops below altitude 10° 11:40:30 10° 86° (E) 6,564 14.3 32.2°
Sets 11:45:12 0° 82° (E) 7,329 14.4 32.2°
